Lawrenceville, GA

8:52 AM EST on December 16, 2019 (GMT -0500)
Gwinnett County-Briscoe

Weather History for KLZU - September, 2019

Change the Weather History Date:

Friday, September 13, 2019

  Actual Average (KWDR) Record (KWDR)
Temperature  
Mean Temperature 82 °F -  
Max Temperature 96 °F 82 °F 95 °F (1962)
Min Temperature 68 °F 61 °F -34 °F (2013)
Cooling Degree Days 16    
Growing Degree Days 32 (Base 50)    
Moisture  
Dew Point 69 °F    
Average Humidity 78    
Maximum Humidity 100    
Minimum Humidity 37    
Precipitation  
Precipitation 0.59 in - - ()
Sea Level Pressure  
Sea Level Pressure 30.19 in    
Wind  
Wind Speed 2 mph (ENE)    
Max Wind Speed 15 mph    
Max Gust Speed 25 mph    
Visibility 9 miles    
Events Rain , Thunderstorm    
Averages and records for this station are not official NWS values.
T = Trace of Precipitation, MM = Missing Value Source: NWS Daily Summary

Daily Weather History Graph

Daily Weather History Graph

Search for Another Location

Airport or City:

Astronomy

Sep. 13, 2019 Rise Set
Actual Time 7:17 AM EDT 7:45 PM EDT
Civil Twilight 6:52 AM EDT 8:10 PM EDT
Nautical Twilight 6:22 AM EDT 8:39 PM EDT
Astronomical Twilight 5:52 AM EDT 9:09 PM EDT
Moon 7:55 PM EDT (9/13) 6:38 AM EDT (9/13)
Length of Visible Light 13h 18m
Length of Day
12h 27m
Full, 100% of the Moon is Illuminated
Sep 13
Full
Sep 14
Full
Sep 21
Last Quarter
Sep 28
New
Oct 5
First Quarter

Hourly Weather History & Observations

Time (EDT) Temp. Heat Index Dew Point Humidity Pressure Visibility Wind Dir Wind Speed Gust Speed Precip Events Conditions
12:56 AM 71.1 °F - 69.1 °F 93% 30.14 in 10.0 mi Calm Calm - N/A   Clear
1:56 AM 71.1 °F - 68.0 °F 90% 30.14 in 9.0 mi Calm Calm - N/A   Clear
2:56 AM 70.0 °F - 66.9 °F 90% 30.14 in 10.0 mi Calm Calm - N/A   Clear
3:56 AM 69.1 °F - 66.9 °F 93% 30.14 in 10.0 mi Calm Calm - N/A   Clear
4:56 AM 69.1 °F - 66.9 °F 93% 30.14 in 10.0 mi Calm Calm - N/A   Partly Cloudy
5:56 AM 68.0 °F - 66.9 °F 96% 30.15 in 10.0 mi Calm Calm - N/A   Clear
6:56 AM 68.0 °F - 66.9 °F 96% 30.17 in 9.0 mi Calm Calm - N/A   Clear
7:56 AM 69.1 °F - 66.9 °F 93% 30.18 in 7.0 mi Calm Calm - N/A   Clear
8:56 AM 77.0 °F - 69.1 °F 76% 30.20 in 7.0 mi Calm Calm - N/A   Clear
9:56 AM 82.9 °F 85.8 °F 68.0 °F 60% 30.21 in 7.0 mi ESE 4.6 mph - N/A   Clear
10:56 AM 87.1 °F 90.6 °F 68.0 °F 53% 30.21 in 7.0 mi Calm Calm - N/A   Clear
11:56 AM 90.0 °F 94.5 °F 69.1 °F 50% 30.21 in 6.0 mi Calm Calm - N/A   Haze
12:56 PM 91.9 °F 95.9 °F 68.0 °F 45% 30.20 in 7.0 mi Variable 5.8 mph - N/A   Clear
1:56 PM 93.0 °F 97.9 °F 69.1 °F 45% 30.19 in 10.0 mi East 6.9 mph - N/A   Clear
2:56 PM 95.0 °F 100.7 °F 69.1 °F 43% 30.17 in 9.0 mi ENE 6.9 mph - N/A   Partly Cloudy
3:56 PM 95.0 °F 99.0 °F 66.9 °F 40% 30.13 in 8.0 mi Variable 6.9 mph - N/A   Clear
4:56 PM 95.0 °F 97.4 °F 64.9 °F 37% 30.12 in 10.0 mi East 4.6 mph - N/A   Clear
5:56 PM 91.9 °F 95.4 °F 66.9 °F 44% 30.13 in 10.0 mi East 5.8 mph - N/A   Clear
6:56 PM 88.0 °F 92.1 °F 69.1 °F 53% 30.14 in 10.0 mi ESE 5.8 mph - N/A Thunderstorm Clear
7:32 PM 78.8 °F - 75.2 °F 89% 30.16 in 9.0 mi Variable 5.8 mph - 0.06 in Rain Light Rain
7:45 PM 78.8 °F - 73.4 °F 83% 30.17 in 10.0 mi Calm Calm - 0.06 in Thunderstorm Thunderstorm
7:49 PM 78.8 °F - 73.4 °F 83% 30.17 in 10.0 mi NNE 3.5 mph - 0.06 in Thunderstorm Thunderstorm
7:56 PM 77.0 °F - 75.0 °F 94% 30.18 in 10.0 mi NNE 3.5 mph - 0.06 in Thunderstorm Thunderstorm
8:56 PM 75.9 °F - 75.9 °F 100% 30.20 in 9.0 mi East 3.5 mph - N/A   Mostly Cloudy
9:37 PM 77.0 °F - 69.8 °F 78% 30.23 in 10.0 mi ENE 15.0 mph 25.3 mph N/A Thunderstorm Mostly Cloudy
9:56 PM 75.0 °F - 71.1 °F 87% 30.26 in 10.0 mi ENE 12.7 mph 24.2 mph N/A Thunderstorm Overcast
10:48 PM 69.8 °F - 69.8 °F 100% 30.27 in 8.0 mi East 8.1 mph - 0.48 in Rain , Thunderstorm Rain
10:56 PM 69.1 °F - 69.1 °F 100% 30.28 in 10.0 mi Variable 5.8 mph - 0.49 in Rain , Thunderstorm Light Rain
11:00 PM 69.8 °F - 69.8 °F 100% 30.28 in 10.0 mi East 4.6 mph - 0.01 in Rain , Thunderstorm Light Rain
11:10 PM 69.8 °F - 69.8 °F 100% 30.27 in 9.0 mi Variable 3.5 mph - 0.01 in Rain Light Rain
11:56 PM 70.0 °F - 70.0 °F 100% 30.25 in 10.0 mi Variable 4.6 mph - 0.04 in Rain Light Rain